Content
SEND FEEDBACK

Daily
Averages
Monthly
Summary
Mexico

XALPA, DISTRITO FEDERAL


Home > North America > Mexico > Distrito Federal
Elevation: 9826 feet     Latitude: 19 18N     Longitude: 099 18W

WEATHER
 
SELECT A DAY
Number of Records: 208,406;   Date Range: 1/1/95 - 7/23/14
 
SHARE

PRINT THIS DATA

[ ← Previous Day ]
WEATHER ALMANAC - JANUARY 31, 2013
[ Next Day → ]
[ °C ]   °F
Weather ElementAverageHighLow
Temperature60.1 °F77 °F (1:45 pm)42.8 °F (6:31 am)
Dewpoint34.7 °F39.2 °F (8:19 am)26.6 °F (3:45 pm)
Humidity43.2 %81 % (6:31 am)16 % (3:45 pm)
Barometer30.22 in30.38 in (9:45 am)29.73 in (2:42 pm)
Wind Speed5.1 mph13.8 mph (5:44 pm)
Weather ElementAverage
Visibility7.8 mi
Wind DirectionENE (75.1 °)

Weather ElementTotal
Precipitation---
Heating Degree Days5.1 (Base 65)
Growing Degree Days9.9 (Base 50)
Averaged from 37 records on January 31, 2013
WEATHER CONDITIONS BREAKOUT
WIND DIRECTION BREAKOUT
WEATHER BY HOUR - JANUARY 31, 2013
[ °C ]   °F
Local TimeTemperatureDewpointHumidityBarometerVisibilityWind DirectionWind SpeedGust SpeedPrecipitationEventsConditions
1:46 AM53.6 °F32.0 °F44 %30.31 in12.0 miCalmClear
2:49 AM53.6 °F32.0 °F44 %29.80 in12.0 miCalmClear
3:47 AM50.0 °F32.0 °F50 %30.29 in12.0 miENE (70°)5.8 mphScattered Clouds
4:46 AM46.4 °F30.2 °F53 %30.29 in12.0 miEast (80°)5.8 mphPartly Cloudy
5:47 AM44.6 °F32.0 °F61 %29.87 in12.0 miEast (100°)4.6 mphPartly Cloudy
6:31 AM42.8 °F37.4 °F81 %30.33 in12.0 miENE (60°)3.5 mphPartly Cloudy
6:44 AM42.8 °F37.4 °F81 %30.32 in12.0 miEast (90°)5.8 mphScattered Clouds
7:24 AM42.8 °F37.4 °F81 %30.34 in8.0 miENE (70°)4.6 mphScattered Clouds
7:44 AM44.6 °F37.4 °F76 %30.34 in7.0 miESE (110°)4.6 mphScattered Clouds
8:19 AM48.2 °F39.2 °F71 %30.36 in7.0 miNE (50°)4.6 mphScattered Clouds
8:21 AM48.2 °F39.2 °F71 %30.36 in7.0 miNE (50°)4.6 mphScattered Clouds
8:45 AM48.2 °F39.2 °F71 %29.95 in6.0 miNE (40°)3.5 mphScattered Clouds
9:03 AM51.8 °F37.4 °F58 %30.37 in6.0 miENE (70°)4.6 mphPartly Cloudy
9:20 AM53.6 °F37.4 °F54 %30.37 in6.0 miCalmPartly Cloudy
9:45 AM57.2 °F33.8 °F41 %30.38 in6.0 miENE (70°)4.6 mphScattered Clouds
9:47 AM57.2 °F33.8 °F41 %30.38 in6.0 miENE (70°)4.6 mphPartly Cloudy
10:43 AM60.8 °F35.6 °F39 %30.38 in6.0 miEast (90°)3.5 mphClear
10:49 AM62.6 °F35.6 °F37 %30.38 in6.0 miNNE (20°)3.5 mphClear
11:27 AM66.2 °F33.8 °F30 %30.37 in6.0 miENE (60°)5.8 mphClear
11:47 AM66.2 °F33.8 °F30 %29.86 in6.0 miCalmClear
12:10 PM69.8 °F32.0 °F25 %30.35 in6.0 miESE (110°)5.8 mphClear
12:43 PM71.6 °F32.0 °F23 %30.33 in7.0 miESE (110°)6.9 mphClear
1:30 PM75.2 °F30.2 °F19 %30.30 in8.0 miCalmClear
1:45 PM77.0 °F28.4 °F17 %30.29 in8.0 miSSE (150°)5.8 mphClear
2:42 PM77.0 °F28.4 °F17 %29.73 in7.0 miEast (90°)3.5 mphClear
3:45 PM77.0 °F26.6 °F16 %30.24 in6.0 miSouth (180°)4.6 mphClear
4:43 PM77.0 °F32.0 °F19 %30.23 in6.0 miSE (130°)11.5 mphClear
5:41 PM73.4 °F35.6 °F25 %30.24 in6.0 miSE (140°)12.7 mphClear
5:44 PM71.6 °F35.6 °F27 %29.81 in6.0 miSE (140°)13.8 mphClear
6:39 PM68.0 °F37.4 °F33 %30.26 in6.0 miSE (140°)12.7 mphClear
6:45 PM68.0 °F37.4 °F33 %30.26 in6.0 miSE (130°)12.7 mphClear
7:45 PM64.4 °F37.4 °F37 %30.31 in8.0 miEast (90°)5.8 mphClear
7:48 PM64.4 °F37.4 °F37 %30.31 in8.0 miESE (110°)5.8 mphClear
8:44 PM64.4 °F35.6 °F34 %29.94 in8.0 miENE (70°)4.6 mphClear
9:47 PM62.6 °F37.4 °F39 %30.37 in8.0 miCalmClear
10:46 PM60.8 °F35.6 °F39 %30.37 in8.0 miNE (50°)3.5 mphClear
11:46 PM59.0 °F37.4 °F45 %29.93 in8.0 miNE (40°)4.6 mphClear
Hourly data recorded from MMMX, located miles away from Xalpa, Distrito Federal







STORIES FROM OUR PARTNERS